Location: Unspecified
(0.0000°N, 0.0000°E)
Time: 08:55:31
(UTC+00:00)

CZ-3C DEB - Pass Details

Date: 15 March 2026
Orbit: 509 x 34331 km, 19.9° (Epoch: 18 April)

Event Time Altitude Azimuth Distance (km) Brightness Sun altitude
Rises 22:38:51 0° 254° (WSW) 10,778 ? -67.3°
Reaches altitude 10° 22:44:57 10° 250° (WSW) 11,419 ? -68.9°
Maximum altitude 00:50:54 52° 232° (SW) 28,992 ? -79.3°
Drops below altitude 10° 08:07:29 10° 43° (NE) 3,689 ? 29.6°
Sets 08:09:22 0° 51° (NE) 4,112 ? 30.1°
